Time,TemperatureF,DewpointF,PressureIn,WindDirection,WindDirectionDegrees,WindSpeedMPH,WindSpeedGustMPH,Humidity,HourlyPrecipIn,Conditions,Clouds,dailyrainin,SoftwareType,DateUTC
2013-01-11 00:00:00,43.5,29.3,29.88,SSE,158,7.2,7.2,57,0.00,,---,0.00,VWS V14.01,2013-01-11 07:00:00,
2013-01-11 00:05:00,42.6,30.5,29.88,SSW,202,4.3,4.3,62,0.00,,---,0.00,VWS V14.01,2013-01-11 07:05:00,
2013-01-11 00:10:00,42.1,30.4,29.91,NE,45,8.5,8.5,63,0.00,,---,0.00,VWS V14.01,2013-01-11 07:10:00,
2013-01-11 00:15:00,41.5,29.9,29.91,NNE,22,4.3,4.3,63,0.00,,---,0.00,VWS V14.01,2013-01-11 07:15:00,
2013-01-11 00:20:00,41.2,29.6,29.91,SW,225,3.1,3.1,63,0.00,,---,0.00,VWS V14.01,2013-01-11 07:20:00,
2013-01-11 00:25:00,40.6,30.5,29.91,NW,315,6.5,6.5,67,0.00,,---,0.00,VWS V14.01,2013-01-11 07:25:00,
2013-01-11 00:30:00,40.3,29.5,29.91,West,270,4.3,4.3,65,0.00,,---,0.00,VWS V14.01,2013-01-11 07:30:00,
2013-01-11 00:35:00,39.7,30.4,29.91,West,270,3.8,4.0,69,0.00,,---,0.00,VWS V14.01,2013-01-11 07:35:00,
2013-01-11 00:40:00,39.4,27.9,29.91,SE,135,3.4,3.4,63,0.00,,---,0.00,VWS V14.01,2013-01-11 07:40:00,
2013-01-11 00:45:00,39.2,27.7,29.91,SE,135,2.5,2.9,63,0.00,,---,0.00,VWS V14.01,2013-01-11 07:45:00,
2013-01-11 00:50:00,38.8,28.1,29.91,SE,135,0.0,0.0,65,0.00,,---,0.00,VWS V14.01,2013-01-11 07:50:00,
2013-01-11 00:56:00,38.7,28.3,29.94,WNW,292,2.7,2.7,66,0.00,,---,0.00,VWS V14.01,2013-01-11 07:56:00,
2013-01-11 01:01:00,38.5,28.1,29.94,North,0,2.2,2.2,66,0.00,,---,0.00,VWS V14.01,2013-01-11 08:01:00,
2013-01-11 01:06:00,38.3,27.2,29.94,NNW,338,0.0,0.0,64,0.00,,---,0.00,VWS V14.01,2013-01-11 08:06:00,
2013-01-11 01:11:00,38.3,27.6,29.94,ESE,112,3.4,3.4,65,0.00,,---,0.00,VWS V14.01,2013-01-11 08:11:00,
2013-01-11 01:16:00,38.1,28.9,29.94,ENE,68,1.1,2.7,69,0.00,,---,0.00,VWS V14.01,2013-01-11 08:16:00,
2013-01-11 01:21:00,37.8,29.6,29.94,NW,315,2.5,2.9,72,0.00,,---,0.00,VWS V14.01,2013-01-11 08:21:00,
2013-01-11 01:26:00,37.6,30.1,29.94,East,90,3.1,3.1,74,0.00,,---,0.00,VWS V14.01,2013-01-11 08:26:00,
2013-01-11 01:31:00,37.4,29.5,29.94,North,0,2.9,2.9,73,0.00,,---,0.00,VWS V14.01,2013-01-11 08:31:00,
2013-01-11 01:36:00,37.2,31.0,29.94,East,90,3.1,3.1,78,0.00,,---,0.00,VWS V14.01,2013-01-11 08:36:00,
2013-01-11 01:41:00,37.0,30.2,29.94,ENE,68,5.8,5.8,76,0.00,,---,0.00,VWS V14.01,2013-01-11 08:41:00,
2013-01-11 01:46:00,37.0,31.1,29.94,ENE,68,3.8,3.8,79,0.00,,---,0.00,VWS V14.01,2013-01-11 08:46:00,
2013-01-11 01:51:00,37.0,30.2,29.94,ENE,68,3.6,5.4,76,0.00,,---,0.00,VWS V14.01,2013-01-11 08:51:00,
2013-01-11 01:56:00,37.0,30.5,29.94,ENE,68,1.6,2.2,77,0.00,,---,0.00,VWS V14.01,2013-01-11 08:56:00,
2013-01-11 02:01:00,37.2,30.7,29.94,ENE,68,4.9,4.9,77,0.00,,---,0.00,VWS V14.01,2013-01-11 09:01:00,
2013-01-11 02:06:00,37.2,30.4,29.94,ESE,112,1.6,3.1,76,0.00,,---,0.00,VWS V14.01,2013-01-11 09:06:00,
2013-01-11 02:11:00,37.0,30.2,29.94,NNE,22,2.2,2.2,76,0.00,,---,0.00,VWS V14.01,2013-01-11 09:11:00,
2013-01-11 02:16:00,37.2,30.7,29.94,NE,45,0.9,1.6,77,0.00,,---,0.00,VWS V14.01,2013-01-11 09:16:00,
2013-01-11 02:21:00,37.2,30.4,29.94,NE,45,4.0,4.0,76,0.00,,---,0.00,VWS V14.01,2013-01-11 09:21:00,
2013-01-11 02:26:00,37.2,31.0,29.94,ENE,68,5.8,5.8,78,0.00,,---,0.00,VWS V14.01,2013-01-11 09:26:00,
2013-01-11 02:31:00,37.2,30.7,29.94,East,90,4.9,4.9,77,0.00,,---,0.00,VWS V14.01,2013-01-11 09:31:00,
2013-01-11 02:36:00,37.0,30.8,29.94,NE,45,4.3,4.3,78,0.00,,---,0.00,VWS V14.01,2013-01-11 09:36:00,
2013-01-11 02:41:00,37.2,30.7,29.94,NE,45,4.0,4.0,77,0.00,,---,0.00,VWS V14.01,2013-01-11 09:41:00,
2013-01-11 02:46:00,37.2,30.4,29.94,East,90,3.6,3.6,76,0.00,,---,0.00,VWS V14.01,2013-01-11 09:46:00,
2013-01-11 02:51:00,37.4,29.9,29.94,NE,45,2.5,3.6,74,0.00,,---,0.00,VWS V14.01,2013-01-11 09:51:00,
2013-01-11 02:56:00,37.4,29.5,29.94,North,0,1.6,2.2,73,0.00,,---,0.00,VWS V14.01,2013-01-11 09:56:00,
2013-01-11 03:01:00,37.6,30.4,29.94,ENE,68,4.0,4.0,75,0.00,,---,0.00,VWS V14.01,2013-01-11 10:01:00,
2013-01-11 03:06:00,37.6,29.7,29.94,East,90,2.9,3.1,73,0.00,,---,0.00,VWS V14.01,2013-01-11 10:06:00,
2013-01-11 03:11:00,37.6,29.4,29.97,NE,45,2.5,2.7,72,0.00,,---,0.00,VWS V14.01,2013-01-11 10:11:00,
2013-01-11 03:16:00,37.6,29.4,29.97,SE,135,2.7,3.8,72,0.00,,---,0.00,VWS V14.01,2013-01-11 10:16:00,
2013-01-11 03:21:00,37.8,29.2,29.97,NNE,22,0.9,1.1,71,0.00,,---,0.00,VWS V14.01,2013-01-11 10:21:00,
2013-01-11 03:26:00,37.9,29.0,29.97,NNE,22,0.0,0.0,70,0.00,,---,0.00,VWS V14.01,2013-01-11 10:26:00,
2013-01-11 03:31:00,37.9,29.0,29.97,NE,45,0.0,0.0,70,0.00,,---,0.00,VWS V14.01,2013-01-11 10:31:00,
2013-01-11 03:36:00,37.9,28.7,29.97,WSW,248,0.0,0.0,69,0.00,,---,0.00,VWS V14.01,2013-01-11 10:36:00,
2013-01-11 03:41:00,38.1,28.9,29.97,WSW,248,0.0,0.0,69,0.00,,---,0.00,VWS V14.01,2013-01-11 10:41:00,
2013-01-11 03:46:00,38.1,28.9,29.97,WSW,248,0.0,0.0,69,0.00,,---,0.00,VWS V14.01,2013-01-11 10:46:00,
2013-01-11 03:51:00,38.1,28.9,29.97,WSW,248,0.0,0.0,69,0.00,,---,0.00,VWS V14.01,2013-01-11 10:51:00,
2013-01-11 03:56:00,38.1,28.5,29.97,SW,225,0.0,0.0,68,0.00,,---,0.00,VWS V14.01,2013-01-11 10:56:00,
2013-01-11 04:01:00,38.3,29.4,29.97,SSE,158,0.0,0.0,70,0.00,,---,0.00,VWS V14.01,2013-01-11 11:01:00,
2013-01-11 04:06:00,38.3,29.4,29.97,SSE,158,0.0,0.0,70,0.00,,---,0.00,VWS V14.01,2013-01-11 11:06:00,
2013-01-11 04:11:00,38.5,29.6,29.97,SSE,158,0.0,0.0,70,0.00,,---,0.00,VWS V14.01,2013-01-11 11:11:00,
2013-01-11 04:16:00,38.5,29.2,29.97,SSE,158,0.0,0.0,69,0.00,,---,0.00,VWS V14.01,2013-01-11 11:16:00,
2013-01-11 04:21:00,38.5,29.6,29.97,SSE,158,0.0,0.0,70,0.00,,---,0.00,VWS V14.01,2013-01-11 11:21:00,
2013-01-11 04:26:00,38.5,29.2,29.97,SSE,158,0.0,0.0,69,0.00,,---,0.00,VWS V14.01,2013-01-11 11:26:00,
2013-01-11 04:31:00,38.5,29.2,29.97,SSE,158,0.0,0.0,69,0.00,,---,0.00,VWS V14.01,2013-01-11 11:31:00,
2013-01-11 04:36:00,38.5,28.9,29.97,SSE,158,0.0,0.0,68,0.00,,---,0.00,VWS V14.01,2013-01-11 11:36:00,
2013-01-11 04:41:00,38.5,28.9,29.97,SE,135,0.0,0.0,68,0.00,,---,0.00,VWS V14.01,2013-01-11 11:41:00,
2013-01-11 04:46:00,38.5,28.9,29.97,SE,135,0.0,0.0,68,0.00,,---,0.00,VWS V14.01,2013-01-11 11:46:00,
2013-01-11 04:51:00,38.5,28.5,29.97,SSE,158,0.0,1.1,67,0.00,,---,0.00,VWS V14.01,2013-01-11 11:51:00,
2013-01-11 04:56:00,38.3,28.7,29.97,SE,135,2.0,2.5,68,0.00,,---,0.00,VWS V14.01,2013-01-11 11:56:00,
2013-01-11 05:01:00,38.3,28.3,29.97,South,180,0.9,1.1,67,0.00,,---,0.00,VWS V14.01,2013-01-11 12:01:00,
2013-01-11 05:06:00,38.3,28.3,29.97,South,180,1.3,1.3,67,0.00,,---,0.00,VWS V14.01,2013-01-11 12:06:00,
2013-01-11 05:11:00,38.3,28.0,29.97,SSW,202,0.9,1.1,66,0.00,,---,0.00,VWS V14.01,2013-01-11 12:11:00,
2013-01-11 05:16:00,38.3,28.0,29.97,SW,225,0.9,0.9,66,0.00,,---,0.00,VWS V14.01,2013-01-11 12:16:00,
2013-01-11 05:21:00,38.3,27.6,29.97,SSW,202,0.0,2.0,65,0.00,,---,0.00,VWS V14.01,2013-01-11 12:21:00,
2013-01-11 05:26:00,38.1,27.4,29.97,SE,135,2.9,2.9,65,0.00,,---,0.00,VWS V14.01,2013-01-11 12:26:00,
2013-01-11 05:31:00,38.1,27.0,29.97,WSW,248,3.4,3.4,64,0.00,,---,0.00,VWS V14.01,2013-01-11 12:31:00,
2013-01-11 05:36:00,38.1,27.0,29.97,SSW,202,1.1,1.1,64,0.00,,---,0.00,VWS V14.01,2013-01-11 12:36:00,
2013-01-11 05:41:00,38.1,26.6,29.97,SW,225,2.7,2.7,63,0.00,,---,0.00,VWS V14.01,2013-01-11 12:41:00,
2013-01-11 05:46:00,38.1,26.6,29.97,SSW,202,1.1,1.1,63,0.00,,---,0.00,VWS V14.01,2013-01-11 12:46:00,
2013-01-11 05:51:00,38.1,26.6,29.97,SW,225,1.3,1.3,63,0.00,,---,0.00,VWS V14.01,2013-01-11 12:51:00,
2013-01-11 05:56:00,38.1,26.6,29.97,SSW,202,2.5,2.5,63,0.00,,---,0.00,VWS V14.01,2013-01-11 12:56:00,
2013-01-11 06:01:00,38.1,26.6,29.97,SSE,158,2.0,2.0,63,0.00,,---,0.00,VWS V14.01,2013-01-11 13:01:00,
2013-01-11 06:07:00,37.9,26.5,29.97,SSW,202,2.0,2.0,63,0.00,,---,0.00,VWS V14.01,2013-01-11 13:07:00,
2013-01-11 06:12:00,37.8,26.7,29.97,SSW,202,0.0,1.3,64,0.00,,---,0.00,VWS V14.01,2013-01-11 13:12:00,
2013-01-11 06:17:00,37.4,26.4,29.97,South,180,0.0,0.0,64,0.00,,---,0.00,VWS V14.01,2013-01-11 13:17:00,
2013-01-11 06:22:00,37.2,26.2,29.97,South,180,0.0,0.0,64,0.00,,---,0.00,VWS V14.01,2013-01-11 13:22:00,
2013-01-11 06:27:00,37.0,26.4,29.97,South,180,0.0,0.0,65,0.00,,---,0.00,VWS V14.01,2013-01-11 13:27:00,
2013-01-11 06:32:00,36.9,26.2,29.97,South,180,0.9,1.6,65,0.00,,---,0.00,VWS V14.01,2013-01-11 13:32:00,
2013-01-11 06:37:00,36.7,26.0,29.97,South,180,1.3,1.3,65,0.00,,---,0.00,VWS V14.01,2013-01-11 13:37:00,
2013-01-11 06:42:00,36.7,26.0,30.00,South,180,0.0,0.0,65,0.00,,---,0.00,VWS V14.01,2013-01-11 13:42:00,
2013-01-11 06:47:00,36.5,25.9,30.00,South,180,0.0,0.0,65,0.00,,---,0.00,VWS V14.01,2013-01-11 13:47:00,
2013-01-11 06:52:00,36.3,26.1,30.00,South,180,0.0,0.0,66,0.00,,---,0.00,VWS V14.01,2013-01-11 13:52:00,
2013-01-11 06:57:00,36.3,26.1,30.00,South,180,0.0,0.0,66,0.00,,---,0.00,VWS V14.01,2013-01-11 13:57:00,
2013-01-11 07:02:00,36.3,26.1,30.00,South,180,0.0,0.0,66,0.00,,---,0.00,VWS V14.01,2013-01-11 14:02:00,
2013-01-11 07:07:00,36.3,26.8,30.00,South,180,0.9,0.9,68,0.00,,---,0.00,VWS V14.01,2013-01-11 14:07:00,
2013-01-11 07:12:00,36.3,26.8,30.00,South,180,0.0,0.0,68,0.00,,---,0.00,VWS V14.01,2013-01-11 14:12:00,
2013-01-11 07:17:00,36.3,26.8,30.00,South,180,0.0,0.0,68,0.00,,---,0.00,VWS V14.01,2013-01-11 14:17:00,
2013-01-11 07:22:00,36.3,27.1,30.00,South,180,0.0,0.0,69,0.00,,---,0.00,VWS V14.01,2013-01-11 14:22:00,
2013-01-11 07:27:00,36.5,27.3,30.00,South,180,0.0,0.0,69,0.00,,---,0.00,VWS V14.01,2013-01-11 14:27:00,
2013-01-11 07:32:00,36.7,27.5,30.00,South,180,0.0,0.0,69,0.00,,---,0.00,VWS V14.01,2013-01-11 14:32:00,
2013-01-11 07:37:00,36.5,27.0,30.00,South,180,0.0,0.0,68,0.00,,---,0.00,VWS V14.01,2013-01-11 14:37:00,
2013-01-11 07:42:00,36.3,27.1,30.03,South,180,0.0,0.0,69,0.00,,---,0.00,VWS V14.01,2013-01-11 14:42:00,
2013-01-11 07:47:00,36.3,26.8,30.03,South,180,0.0,0.0,68,0.00,,---,0.00,VWS V14.01,2013-01-11 14:47:00,
2013-01-11 07:52:00,36.1,27.0,30.03,ESE,112,0.0,0.0,69,0.00,,---,0.00,VWS V14.01,2013-01-11 14:52:00,
2013-01-11 07:57:00,36.0,26.8,30.00,ESE,112,0.0,0.0,69,0.00,,---,0.00,VWS V14.01,2013-01-11 14:57:00,
2013-01-11 08:02:00,36.0,26.8,30.00,ESE,112,0.0,0.0,69,0.00,,---,0.00,VWS V14.01,2013-01-11 15:02:00,
2013-01-11 08:07:00,35.8,27.0,30.00,ESE,112,0.0,0.0,70,0.00,,---,0.00,VWS V14.01,2013-01-11 15:07:00,
2013-01-11 08:12:00,35.8,27.0,30.00,ESE,112,0.0,0.0,70,0.00,,---,0.00,VWS V14.01,2013-01-11 15:12:00,
2013-01-11 08:17:00,36.1,27.3,30.00,ESE,112,0.0,0.0,70,0.00,,---,0.00,VWS V14.01,2013-01-11 15:17:00,
2013-01-11 08:22:00,36.3,27.8,30.00,ENE,68,0.0,0.0,71,0.00,,---,0.00,VWS V14.01,2013-01-11 15:22:00,
2013-01-11 08:27:00,37.2,28.7,30.03,West,270,0.0,0.0,71,0.00,,---,0.00,VWS V14.01,2013-01-11 15:27:00,
2013-01-11 08:32:00,38.1,29.6,30.03,SSE,158,0.0,0.0,71,0.00,,---,0.00,VWS V14.01,2013-01-11 15:32:00,
2013-01-11 08:37:00,38.8,30.3,30.03,ESE,112,0.0,1.1,71,0.00,,---,0.00,VWS V14.01,2013-01-11 15:37:00,
2013-01-11 08:42:00,40.3,31.6,30.03,SSW,202,0.0,0.0,71,0.00,,---,0.00,VWS V14.01,2013-01-11 15:42:00,
2013-01-11 08:47:00,41.2,31.4,30.03,SW,225,0.0,2.5,68,0.00,,---,0.00,VWS V14.01,2013-01-11 15:47:00,
2013-01-11 08:52:00,42.1,31.9,30.03,SSW,202,3.4,3.4,67,0.00,,---,0.00,VWS V14.01,2013-01-11 15:52:00,
2013-01-11 08:57:00,42.3,30.2,30.03,South,180,1.1,1.6,62,0.00,,---,0.00,VWS V14.01,2013-01-11 15:57:00,
2013-01-11 09:02:00,42.4,29.5,30.03,WSW,248,3.1,3.1,60,0.00,,---,0.00,VWS V14.01,2013-01-11 16:02:00,
2013-01-11 09:07:00,42.6,29.7,30.03,SW,225,2.9,2.9,60,0.00,,---,0.00,VWS V14.01,2013-01-11 16:07:00,
2013-01-11 09:12:00,42.8,29.1,30.03,West,270,0.0,2.9,58,0.00,,---,0.00,VWS V14.01,2013-01-11 16:12:00,
2013-01-11 09:17:00,43.5,29.3,30.03,North,0,2.0,2.0,57,0.00,,---,0.00,VWS V14.01,2013-01-11 16:17:00,
2013-01-11 09:22:00,43.7,28.6,30.03,NNE,22,1.1,1.3,55,0.00,,---,0.00,VWS V14.01,2013-01-11 16:22:00,
2013-01-11 09:27:00,43.9,28.3,30.03,NW,315,0.0,2.2,54,0.00,,---,0.00,VWS V14.01,2013-01-11 16:27:00,
2013-01-11 09:32:00,43.3,26.9,30.03,NW,315,3.8,3.8,52,0.00,,---,0.00,VWS V14.01,2013-01-11 16:32:00,
2013-01-11 09:37:00,43.3,26.9,30.03,WSW,248,1.1,2.7,52,0.00,,---,0.00,VWS V14.01,2013-01-11 16:37:00,
2013-01-11 09:42:00,43.7,27.2,30.03,NNW,338,2.5,2.5,52,0.00,,---,0.00,VWS V14.01,2013-01-11 16:42:00,
2013-01-11 09:47:00,43.5,26.1,30.03,NNW,338,1.1,1.3,50,0.00,,---,0.00,VWS V14.01,2013-01-11 16:47:00,
2013-01-11 09:52:00,43.7,27.2,30.03,WSW,248,3.1,3.1,52,0.00,,---,0.00,VWS V14.01,2013-01-11 16:52:00,
2013-01-11 09:57:00,44.1,27.1,30.03,NW,315,1.1,1.3,51,0.00,,---,0.00,VWS V14.01,2013-01-11 16:57:00,
2013-01-11 10:02:00,44.4,27.0,30.03,NNW,338,1.1,3.8,50,0.00,,---,0.00,VWS V14.01,2013-01-11 17:02:00,
2013-01-11 10:07:00,44.4,27.4,30.03,South,180,0.9,2.0,51,0.00,,---,0.00,VWS V14.01,2013-01-11 17:07:00,
2013-01-11 10:12:00,44.6,26.6,30.03,WNW,292,0.9,3.1,49,0.00,,---,0.00,VWS V14.01,2013-01-11 17:12:00,
2013-01-11 10:17:00,45.3,27.8,30.03,West,270,0.0,0.0,50,0.00,,---,0.00,VWS V14.01,2013-01-11 17:17:00,
2013-01-11 10:22:00,45.9,27.3,30.03,North,0,2.7,3.4,48,0.00,,---,0.00,VWS V14.01,2013-01-11 17:22:00,
2013-01-11 10:27:00,46.0,28.0,30.03,West,270,1.3,1.3,49,0.00,,---,0.00,VWS V14.01,2013-01-11 17:27:00,
2013-01-11 10:32:00,46.6,28.0,30.03,SSE,158,2.0,2.0,48,0.00,,---,0.00,VWS V14.01,2013-01-11 17:32:00,
2013-01-11 10:37:00,47.1,28.5,30.03,SSE,158,2.0,2.0,48,0.00,,---,0.00,VWS V14.01,2013-01-11 17:37:00,
2013-01-11 10:42:00,47.7,28.4,30.03,WSW,248,2.0,3.6,47,0.00,,---,0.00,VWS V14.01,2013-01-11 17:42:00,
2013-01-11 10:47:00,47.8,27.5,30.03,WSW,248,2.9,3.1,45,0.00,,---,0.00,VWS V14.01,2013-01-11 17:47:00,
2013-01-11 10:52:00,48.0,27.2,30.03,WNW,292,1.6,3.6,44,0.00,,---,0.00,VWS V14.01,2013-01-11 17:52:00,
2013-01-11 10:57:00,48.6,27.6,30.00,SSW,202,2.7,2.7,44,0.00,,---,0.00,VWS V14.01,2013-01-11 17:57:00,
2013-01-11 11:02:00,48.7,27.3,30.00,WSW,248,4.7,4.7,43,0.00,,---,0.00,VWS V14.01,2013-01-11 18:02:00,
2013-01-11 11:07:00,48.7,26.7,30.00,SW,225,3.1,3.6,42,0.00,,---,0.00,VWS V14.01,2013-01-11 18:07:00,
2013-01-11 11:12:00,49.3,27.2,30.00,NNW,338,3.4,3.4,42,0.00,,---,0.00,VWS V14.01,2013-01-11 18:12:00,
2013-01-11 11:17:00,48.9,26.3,30.00,NNW,338,1.3,1.3,41,0.00,,---,0.00,VWS V14.01,2013-01-11 18:17:00,
2013-01-11 11:22:00,48.9,25.7,30.00,West,270,2.7,3.1,40,0.00,,---,0.00,VWS V14.01,2013-01-11 18:22:00,
2013-01-11 11:27:00,48.7,24.9,30.00,WSW,248,3.6,4.0,39,0.00,,---,0.00,VWS V14.01,2013-01-11 18:27:00,
2013-01-11 11:32:00,48.9,25.1,30.00,West,270,3.4,4.7,39,0.00,,---,0.00,VWS V14.01,2013-01-11 18:32:00,
2013-01-11 11:37:00,48.6,24.7,30.00,WSW,248,2.9,2.9,39,0.00,,---,0.00,VWS V14.01,2013-01-11 18:37:00,
2013-01-11 11:42:00,47.5,23.8,30.00,WSW,248,2.5,2.9,39,0.00,,---,0.00,VWS V14.01,2013-01-11 18:42:00,
2013-01-11 11:47:00,47.1,23.5,30.00,WSW,248,0.9,2.9,39,0.00,,---,0.00,VWS V14.01,2013-01-11 18:47:00,
2013-01-11 11:52:00,47.5,23.8,30.00,WSW,248,3.4,3.4,39,0.00,,---,0.00,VWS V14.01,2013-01-11 18:52:00,
2013-01-11 11:57:00,48.2,24.4,29.97,WSW,248,2.2,2.2,39,0.00,,---,0.00,VWS V14.01,2013-01-11 18:57:00,
2013-01-11 12:02:00,48.6,24.7,29.97,WSW,248,3.4,3.4,39,0.00,,---,0.00,VWS V14.01,2013-01-11 19:02:00,
2013-01-11 12:07:00,48.9,24.5,29.97,WSW,248,2.5,3.6,38,0.00,,---,0.00,VWS V14.01,2013-01-11 19:07:00,
2013-01-11 12:12:00,49.6,25.1,29.97,South,180,1.3,2.7,38,0.00,,---,0.00,VWS V14.01,2013-01-11 19:12:00,
2013-01-11 12:17:00,50.2,25.6,29.97,WSW,248,3.1,3.1,38,0.00,,---,0.00,VWS V14.01,2013-01-11 19:17:00,
2013-01-11 12:22:00,49.3,24.1,29.97,WSW,248,2.0,2.9,37,0.00,,---,0.00,VWS V14.01,2013-01-11 19:22:00,
2013-01-11 12:27:00,48.4,23.3,29.97,WSW,248,1.1,2.9,37,0.00,,---,0.00,VWS V14.01,2013-01-11 19:27:00,
2013-01-11 12:32:00,47.8,22.9,29.97,WSW,248,1.6,2.0,37,0.00,,---,0.00,VWS V14.01,2013-01-11 19:32:00,
2013-01-11 12:37:00,47.8,23.5,29.97,WSW,248,0.9,1.1,38,0.00,,---,0.00,VWS V14.01,2013-01-11 19:37:00,
2013-01-11 12:42:00,48.6,23.5,29.97,West,270,3.1,3.1,37,0.00,,---,0.00,VWS V14.01,2013-01-11 19:42:00,
2013-01-11 12:47:00,49.3,24.1,29.97,NNE,22,1.6,1.6,37,0.00,,---,0.00,VWS V14.01,2013-01-11 19:47:00,
2013-01-11 12:52:00,50.0,24.8,29.97,WSW,248,0.9,2.2,37,0.00,,---,0.00,VWS V14.01,2013-01-11 19:52:00,
2013-01-11 12:57:00,50.7,25.4,29.94,SSW,202,2.9,5.4,37,0.00,,---,0.00,VWS V14.01,2013-01-11 19:57:00,
2013-01-11 13:02:00,51.3,25.9,29.94,SSW,202,1.6,1.6,37,0.00,,---,0.00,VWS V14.01,2013-01-11 20:02:00,
2013-01-11 13:07:00,51.8,25.7,29.94,SSE,158,1.6,4.7,36,0.00,,---,0.00,VWS V14.01,2013-01-11 20:07:00,
2013-01-11 13:12:00,52.0,25.9,29.94,NNW,338,1.6,3.6,36,0.00,,---,0.00,VWS V14.01,2013-01-11 20:12:00,
2013-01-11 13:17:00,50.4,23.8,29.94,North,0,2.9,3.8,35,0.00,,---,0.00,VWS V14.01,2013-01-11 20:17:00,
2013-01-11 13:22:00,50.2,24.3,29.94,WNW,292,2.7,2.9,36,0.00,,---,0.00,VWS V14.01,2013-01-11 20:22:00,
2013-01-11 13:27:00,50.0,22.8,29.94,WSW,248,2.0,3.1,34,0.00,,---,0.00,VWS V14.01,2013-01-11 20:27:00,
2013-01-11 13:32:00,50.2,22.2,29.94,North,0,2.5,4.0,33,0.00,,---,0.00,VWS V14.01,2013-01-11 20:32:00,
2013-01-11 13:37:00,50.5,23.2,29.94,NNW,338,0.9,0.9,34,0.00,,---,0.00,VWS V14.01,2013-01-11 20:37:00,
2013-01-11 13:42:00,50.5,23.2,29.94,ENE,68,2.7,3.1,34,0.00,,---,0.00,VWS V14.01,2013-01-11 20:42:00,
2013-01-11 13:47:00,49.8,21.9,29.94,NNW,338,1.3,1.3,33,0.00,,---,0.00,VWS V14.01,2013-01-11 20:47:00,
2013-01-11 13:52:00,49.3,21.4,29.94,WSW,248,2.5,2.5,33,0.00,,---,0.00,VWS V14.01,2013-01-11 20:52:00,
2013-01-11 13:57:00,48.9,21.1,29.94,SW,225,6.3,6.3,33,0.00,,---,0.00,VWS V14.01,2013-01-11 20:57:00,
2013-01-11 14:02:00,49.1,21.3,29.94,SW,225,2.7,3.1,33,0.00,,---,0.00,VWS V14.01,2013-01-11 21:02:00,
2013-01-11 14:07:00,50.0,21.3,29.94,West,270,0.0,2.2,32,0.00,,---,0.00,VWS V14.01,2013-01-11 21:07:00,
2013-01-11 14:12:00,49.6,20.3,29.94,NNW,338,3.1,3.1,31,0.00,,---,0.00,VWS V14.01,2013-01-11 21:12:00,
2013-01-11 14:17:00,49.8,20.4,29.94,West,270,3.8,3.8,31,0.00,,---,0.00,VWS V14.01,2013-01-11 21:17:00,
2013-01-11 14:22:00,50.0,20.6,29.94,West,270,2.5,2.5,31,0.00,,---,0.00,VWS V14.01,2013-01-11 21:22:00,
2013-01-11 14:27:00,49.6,19.5,29.91,WSW,248,3.4,3.4,30,0.00,,---,0.00,VWS V14.01,2013-01-11 21:27:00,
2013-01-11 14:32:00,48.9,18.9,29.91,WSW,248,3.6,3.6,30,0.00,,---,0.00,VWS V14.01,2013-01-11 21:32:00,
2013-01-11 14:37:00,48.6,19.3,29.91,SW,225,2.2,2.9,31,0.00,,---,0.00,VWS V14.01,2013-01-11 21:37:00,
2013-01-11 14:43:00,49.3,19.9,29.91,WNW,292,2.5,2.5,31,0.00,,---,0.00,VWS V14.01,2013-01-11 21:43:00,
2013-01-11 14:48:00,49.5,20.1,29.91,SW,225,2.9,4.9,31,0.00,,---,0.00,VWS V14.01,2013-01-11 21:48:00,
2013-01-11 14:53:00,49.1,19.0,29.91,NW,315,3.4,3.4,30,0.00,,---,0.00,VWS V14.01,2013-01-11 21:53:00,
2013-01-11 14:58:00,49.5,20.1,29.91,SW,225,3.4,3.4,31,0.00,,---,0.00,VWS V14.01,2013-01-11 21:58:00,
2013-01-11 15:03:00,49.6,19.5,29.91,West,270,1.6,2.0,30,0.00,,---,0.00,VWS V14.01,2013-01-11 22:03:00,
2013-01-11 15:08:00,49.3,19.2,29.91,NW,315,8.5,8.5,30,0.00,,---,0.00,VWS V14.01,2013-01-11 22:08:00,
2013-01-11 15:13:00,49.6,19.5,29.91,North,0,3.1,3.1,30,0.00,,---,0.00,VWS V14.01,2013-01-11 22:13:00,
2013-01-11 15:18:00,49.6,19.5,29.91,SW,225,1.3,1.3,30,0.00,,---,0.00,VWS V14.01,2013-01-11 22:18:00,
2013-01-11 15:23:00,49.6,19.5,29.91,NW,315,1.1,1.1,30,0.00,,---,0.00,VWS V14.01,2013-01-11 22:23:00,
2013-01-11 15:28:00,50.2,19.2,29.91,WSW,248,2.9,2.9,29,0.00,,---,0.00,VWS V14.01,2013-01-11 22:28:00,
2013-01-11 15:33:00,49.6,18.7,29.91,West,270,4.3,4.3,29,0.00,,---,0.00,VWS V14.01,2013-01-11 22:33:00,
2013-01-11 15:38:00,49.6,18.7,29.91,SW,225,3.6,3.6,29,0.00,,---,0.00,VWS V14.01,2013-01-11 22:38:00,
2013-01-11 15:43:00,49.6,18.7,29.91,WNW,292,2.9,2.9,29,0.00,,---,0.00,VWS V14.01,2013-01-11 22:43:00,
2013-01-11 15:48:00,49.5,18.5,29.91,WNW,292,3.8,3.8,29,0.00,,---,0.00,VWS V14.01,2013-01-11 22:48:00,
2013-01-11 15:53:00,49.8,18.9,29.91,WSW,248,2.5,2.5,29,0.00,,---,0.00,VWS V14.01,2013-01-11 22:53:00,
2013-01-11 15:58:00,50.0,19.0,29.91,WSW,248,2.7,3.4,29,0.00,,---,0.00,VWS V14.01,2013-01-11 22:58:00,
2013-01-11 16:03:00,49.8,18.9,29.91,SW,225,2.5,3.8,29,0.00,,---,0.00,VWS V14.01,2013-01-11 23:03:00,
2013-01-11 16:09:00,49.6,18.7,29.91,NNE,22,2.7,3.4,29,0.00,,---,0.00,VWS V14.01,2013-01-11 23:09:00,
2013-01-11 16:14:00,49.5,18.5,29.91,WNW,292,7.2,7.2,29,0.00,,---,0.00,VWS V14.01,2013-01-11 23:14:00,
2013-01-11 16:19:00,49.3,18.4,29.91,SW,225,3.6,3.6,29,0.00,,---,0.00,VWS V14.01,2013-01-11 23:19:00,
2013-01-11 16:24:00,48.9,17.3,29.91,West,270,6.5,6.5,28,0.00,,---,0.00,VWS V14.01,2013-01-11 23:24:00,
2013-01-11 16:29:00,48.7,17.1,29.91,West,270,2.7,5.6,28,0.00,,---,0.00,VWS V14.01,2013-01-11 23:29:00,
2013-01-11 16:34:00,48.6,17.8,29.91,WNW,292,2.0,2.0,29,0.00,,---,0.00,VWS V14.01,2013-01-11 23:34:00,
2013-01-11 16:39:00,48.2,16.6,29.91,West,270,3.4,5.4,28,0.00,,---,0.00,VWS V14.01,2013-01-11 23:39:00,
2013-01-11 16:44:00,47.7,17.0,29.91,WNW,292,2.7,2.9,29,0.00,,---,0.00,VWS V14.01,2013-01-11 23:44:00,
2013-01-11 16:49:00,46.9,16.4,29.91,NW,315,3.1,3.1,29,0.00,,---,0.00,VWS V14.01,2013-01-11 23:49:00,
2013-01-11 16:54:00,46.2,15.7,29.91,NW,315,2.0,2.0,29,0.00,,---,0.00,VWS V14.01,2013-01-11 23:54:00,
2013-01-11 16:59:00,46.0,16.4,29.91,WNW,292,1.6,1.6,30,0.00,,---,0.00,VWS V14.01,2013-01-11 23:59:00,
2013-01-11 17:04:00,46.0,16.4,29.91,WNW,292,2.0,2.7,30,0.00,,---,0.00,VWS V14.01,2013-01-12 00:04:00,
2013-01-11 17:09:00,45.3,14.9,29.91,NW,315,1.3,3.8,29,0.00,,---,0.00,VWS V14.01,2013-01-12 00:09:00,
2013-01-11 17:14:00,44.6,14.3,29.91,SW,225,2.5,2.5,29,0.00,,---,0.00,VWS V14.01,2013-01-12 00:14:00,
2013-01-11 17:19:00,44.1,14.6,29.91,NW,315,1.3,3.6,30,0.00,,---,0.00,VWS V14.01,2013-01-12 00:19:00,
2013-01-11 17:24:00,43.5,14.2,29.91,West,270,0.0,0.0,30,0.00,,---,0.00,VWS V14.01,2013-01-12 00:24:00,
2013-01-11 17:29:00,43.0,12.9,29.91,NNW,338,1.3,1.6,29,0.00,,---,0.00,VWS V14.01,2013-01-12 00:29:00,
2013-01-11 17:34:00,42.8,12.8,29.91,North,0,0.0,0.0,29,0.00,,---,0.00,VWS V14.01,2013-01-12 00:34:00,
2013-01-11 17:39:00,42.3,13.1,29.91,West,270,1.6,2.2,30,0.00,,---,0.00,VWS V14.01,2013-01-12 00:39:00,
2013-01-11 17:44:00,42.1,12.9,29.91,WSW,248,0.0,2.7,30,0.00,,---,0.00,VWS V14.01,2013-01-12 00:44:00,
2013-01-11 17:49:00,41.5,12.4,29.91,West,270,0.9,1.1,30,0.00,,---,0.00,VWS V14.01,2013-01-12 00:49:00,
2013-01-11 17:54:00,41.2,12.1,29.91,NW,315,0.0,0.0,30,0.00,,---,0.00,VWS V14.01,2013-01-12 00:54:00,
2013-01-11 17:59:00,40.6,12.4,29.91,NW,315,0.0,0.0,31,0.00,,---,0.00,VWS V14.01,2013-01-12 00:59:00,
2013-01-11 18:04:00,40.3,12.1,29.91,West,270,0.0,0.0,31,0.00,,---,0.00,VWS V14.01,2013-01-12 01:04:00,
2013-01-11 18:09:00,40.1,11.9,29.91,NW,315,0.0,0.0,31,0.00,,---,0.00,VWS V14.01,2013-01-12 01:09:00,
2013-01-11 18:14:00,39.9,11.8,29.91,WNW,292,1.3,1.3,31,0.00,,---,0.00,VWS V14.01,2013-01-12 01:14:00,
2013-01-11 18:19:00,39.6,11.4,29.91,WNW,292,2.2,2.2,31,0.00,,---,0.00,VWS V14.01,2013-01-12 01:19:00,
2013-01-11 18:24:00,39.6,11.4,29.94,North,0,0.0,0.0,31,0.00,,---,0.00,VWS V14.01,2013-01-12 01:24:00,
2013-01-11 18:29:00,39.4,11.3,29.94,NNE,22,2.2,2.2,31,0.00,,---,0.00,VWS V14.01,2013-01-12 01:29:00,
2013-01-11 18:34:00,39.2,11.1,29.94,NNW,338,0.9,0.9,31,0.00,,---,0.00,VWS V14.01,2013-01-12 01:34:00,
2013-01-11 18:39:00,38.8,10.8,29.94,NNW,338,1.1,1.6,31,0.00,,---,0.00,VWS V14.01,2013-01-12 01:39:00,
2013-01-11 18:44:00,38.7,10.6,29.94,NNW,338,2.5,2.7,31,0.00,,---,0.00,VWS V14.01,2013-01-12 01:44:00,
2013-01-11 18:49:00,38.5,10.5,29.94,NNW,338,0.9,2.2,31,0.00,,---,0.00,VWS V14.01,2013-01-12 01:49:00,
2013-01-11 18:54:00,38.1,10.2,29.94,NNW,338,0.9,1.1,31,0.00,,---,0.00,VWS V14.01,2013-01-12 01:54:00,
2013-01-11 19:00:00,37.9,10.0,29.94,NNW,338,1.3,1.3,31,0.00,,---,0.00,VWS V14.01,2013-01-12 02:00:00,
2013-01-11 19:05:00,37.8,10.6,29.94,NNW,338,0.0,0.0,32,0.00,,---,0.00,VWS V14.01,2013-01-12 02:05:00,
2013-01-11 19:10:00,37.4,10.2,29.91,NE,45,2.7,2.7,32,0.00,,---,0.00,VWS V14.01,2013-01-12 02:10:00,
2013-01-11 19:15:00,37.0,10.6,29.91,NNE,22,1.3,1.3,33,0.00,,---,0.00,VWS V14.01,2013-01-12 02:15:00,
2013-01-11 19:20:00,36.9,10.5,29.91,NNW,338,2.7,2.7,33,0.00,,---,0.00,VWS V14.01,2013-01-12 02:20:00,
2013-01-11 19:25:00,36.7,10.3,29.91,North,0,1.6,1.6,33,0.00,,---,0.00,VWS V14.01,2013-01-12 02:25:00,
2013-01-11 19:30:00,36.7,10.3,29.91,North,0,0.0,0.0,33,0.00,,---,0.00,VWS V14.01,2013-01-12 02:30:00,
2013-01-11 19:35:00,36.3,10.6,29.91,WNW,292,1.3,1.3,34,0.00,,---,0.00,VWS V14.01,2013-01-12 02:35:00,
2013-01-11 19:40:00,36.3,10.6,29.91,NE,45,0.0,0.9,34,0.00,,---,0.00,VWS V14.01,2013-01-12 02:40:00,
2013-01-11 19:45:00,36.1,10.5,29.91,NNW,338,2.0,2.0,34,0.00,,---,0.00,VWS V14.01,2013-01-12 02:45:00,
2013-01-11 19:50:00,36.1,10.5,29.91,NNE,22,3.1,3.1,34,0.00,,---,0.00,VWS V14.01,2013-01-12 02:50:00,
2013-01-11 19:55:00,36.0,11.0,29.94,NNW,338,2.2,3.1,35,0.00,,---,0.00,VWS V14.01,2013-01-12 02:55:00,
2013-01-11 20:00:00,36.1,11.1,29.94,NNW,338,1.6,2.0,35,0.00,,---,0.00,VWS V14.01,2013-01-12 03:00:00,
2013-01-11 20:05:00,36.1,11.1,29.94,North,0,3.1,3.1,35,0.00,,---,0.00,VWS V14.01,2013-01-12 03:05:00,
2013-01-11 20:10:00,36.3,10.6,29.94,NE,45,1.3,1.3,34,0.00,,---,0.00,VWS V14.01,2013-01-12 03:10:00,
2013-01-11 20:15:00,36.5,10.8,29.94,NE,45,2.5,2.5,34,0.00,,---,0.00,VWS V14.01,2013-01-12 03:15:00,
2013-01-11 20:20:00,36.7,11.0,29.94,North,0,2.5,2.5,34,0.00,,---,0.00,VWS V14.01,2013-01-12 03:20:00,
2013-01-11 20:25:00,36.3,10.6,29.94,North,0,2.5,2.5,34,0.00,,---,0.00,VWS V14.01,2013-01-12 03:25:00,
2013-01-11 20:30:00,36.1,10.5,29.94,NNW,338,2.9,2.9,34,0.00,,---,0.00,VWS V14.01,2013-01-12 03:30:00,
2013-01-11 20:35:00,36.1,10.5,29.94,NNW,338,2.0,2.0,34,0.00,,---,0.00,VWS V14.01,2013-01-12 03:35:00,
2013-01-11 20:40:00,36.0,11.0,29.91,NNW,338,1.6,2.5,35,0.00,,---,0.00,VWS V14.01,2013-01-12 03:40:00,
2013-01-11 20:45:00,36.0,11.0,29.91,NNE,22,2.0,2.5,35,0.00,,---,0.00,VWS V14.01,2013-01-12 03:45:00,
2013-01-11 20:50:00,35.8,10.8,29.91,NNW,338,0.0,1.3,35,0.00,,---,0.00,VWS V14.01,2013-01-12 03:50:00,
2013-01-11 20:55:00,35.8,10.8,29.91,NNW,338,2.5,2.5,35,0.00,,---,0.00,VWS V14.01,2013-01-12 03:55:00,
2013-01-11 21:00:00,35.6,10.7,29.91,North,0,2.9,2.9,35,0.00,,---,0.00,VWS V14.01,2013-01-12 04:00:00,
2013-01-11 21:05:00,35.6,10.7,29.91,NNW,338,2.2,3.1,35,0.00,,---,0.00,VWS V14.01,2013-01-12 04:05:00,
2013-01-11 21:10:00,35.4,11.1,29.91,NNE,22,2.2,2.2,36,0.00,,---,0.00,VWS V14.01,2013-01-12 04:10:00,
2013-01-11 21:15:00,35.1,10.8,29.91,North,0,3.1,3.1,36,0.00,,---,0.00,VWS V14.01,2013-01-12 04:15:00,
2013-01-11 21:20:00,34.9,10.6,29.91,NNW,338,0.0,1.3,36,0.00,,---,0.00,VWS V14.01,2013-01-12 04:20:00,
2013-01-11 21:25:00,34.9,11.3,29.91,NE,45,0.9,0.9,37,0.00,,---,0.00,VWS V14.01,2013-01-12 04:25:00,
2013-01-11 21:30:00,34.9,11.3,29.91,NE,45,2.7,2.7,37,0.00,,---,0.00,VWS V14.01,2013-01-12 04:30:00,
2013-01-11 21:35:00,34.9,11.3,29.91,NNW,338,2.5,2.5,37,0.00,,---,0.00,VWS V14.01,2013-01-12 04:35:00,
2013-01-11 21:41:00,34.9,11.3,29.94,North,0,3.4,3.4,37,0.00,,---,0.00,VWS V14.01,2013-01-12 04:41:00,
2013-01-11 21:46:00,34.5,10.9,29.94,NNW,338,2.2,2.7,37,0.00,,---,0.00,VWS V14.01,2013-01-12 04:46:00,
2013-01-11 21:51:00,34.3,11.4,29.94,NNW,338,2.7,2.7,38,0.00,,---,0.00,VWS V14.01,2013-01-12 04:51:00,
2013-01-11 21:56:00,34.0,11.1,29.91,North,0,2.7,2.7,38,0.00,,---,0.00,VWS V14.01,2013-01-12 04:56:00,
2013-01-11 22:00:00,34.0,11.6,29.91,NNW,338,1.6,1.6,39,0.00,,---,0.00,VWS V14.01,2013-01-12 05:00:00,
2013-01-11 22:01:00,34.0,11.6,29.91,NNW,338,1.6,1.6,39,0.00,,---,0.00,VWS V14.01,2013-01-12 05:01:00,
2013-01-11 22:03:00,34.0,11.6,29.91,NNW,338,2.0,2.9,39,0.00,,---,0.00,VWS V14.01,2013-01-12 05:03:00,
2013-01-11 22:08:00,33.8,12.1,29.91,North,0,2.0,2.0,40,0.00,,---,0.00,VWS V14.01,2013-01-12 05:08:00,
2013-01-11 22:13:00,33.8,12.1,29.94,NNW,338,2.2,2.2,40,0.00,,---,0.00,VWS V14.01,2013-01-12 05:13:00,
2013-01-11 22:18:00,33.8,12.1,29.94,NW,315,2.0,2.0,40,0.00,,---,0.00,VWS V14.01,2013-01-12 05:18:00,
2013-01-11 22:23:00,33.8,12.1,29.94,NNW,338,2.5,2.5,40,0.00,,---,0.00,VWS V14.01,2013-01-12 05:23:00,
2013-01-11 22:28:00,33.6,11.9,29.94,North,0,2.5,2.5,40,0.00,,---,0.00,VWS V14.01,2013-01-12 05:28:00,
2013-01-11 22:33:00,33.6,11.9,29.94,NNW,338,1.3,1.6,40,0.00,,---,0.00,VWS V14.01,2013-01-12 05:33:00,
2013-01-11 22:38:00,33.4,11.7,29.94,NNW,338,2.7,2.7,40,0.00,,---,0.00,VWS V14.01,2013-01-12 05:38:00,
2013-01-11 22:44:00,33.4,11.7,29.94,North,0,1.3,1.3,40,0.00,,---,0.00,VWS V14.01,2013-01-12 05:44:00,
2013-01-11 22:49:00,33.4,11.7,29.94,NNW,338,2.9,2.9,40,0.00,,---,0.00,VWS V14.01,2013-01-12 05:49:00,
2013-01-11 22:54:00,33.3,11.6,29.94,NNW,338,2.0,2.0,40,0.00,,---,0.00,VWS V14.01,2013-01-12 05:54:00,
2013-01-11 22:59:00,33.3,11.6,29.94,NNW,338,1.3,1.6,40,0.00,,---,0.00,VWS V14.01,2013-01-12 05:59:00,
2013-01-11 23:04:00,33.3,11.6,29.94,NNW,338,2.0,2.0,40,0.00,,---,0.00,VWS V14.01,2013-01-12 06:04:00,
2013-01-11 23:09:00,33.3,11.6,29.94,North,0,3.4,3.4,40,0.00,,---,0.00,VWS V14.01,2013-01-12 06:09:00,
2013-01-11 23:14:00,33.3,11.6,29.94,NNW,338,1.6,3.1,40,0.00,,---,0.00,VWS V14.01,2013-01-12 06:14:00,
2013-01-11 23:19:00,33.3,11.6,29.94,NNW,338,2.7,2.7,40,0.00,,---,0.00,VWS V14.01,2013-01-12 06:19:00,
2013-01-11 23:24:00,33.1,11.4,29.94,North,0,2.7,2.7,40,0.00,,---,0.00,VWS V14.01,2013-01-12 06:24:00,
2013-01-11 23:29:00,33.3,11.6,29.94,NNW,338,0.0,1.6,40,0.00,,---,0.00,VWS V14.01,2013-01-12 06:29:00,
2013-01-11 23:34:00,33.3,11.6,29.94,NW,315,2.5,2.5,40,0.00,,---,0.00,VWS V14.01,2013-01-12 06:34:00,
2013-01-11 23:39:00,33.3,11.6,29.94,North,0,2.9,2.9,40,0.00,,---,0.00,VWS V14.01,2013-01-12 06:39:00,
2013-01-11 23:44:00,33.1,11.4,29.94,NNE,22,1.3,1.3,40,0.00,,---,0.00,VWS V14.01,2013-01-12 06:44:00,
2013-01-11 23:49:00,33.3,11.6,29.94,NNE,22,3.1,3.1,40,0.00,,---,0.00,VWS V14.01,2013-01-12 06:49:00,
2013-01-11 23:54:00,33.3,11.0,29.94,North,0,0.0,0.0,39,0.00,,---,0.00,VWS V14.01,2013-01-12 06:54:00,
2013-01-11 23:59:00,33.1,11.4,29.94,NNW,338,1.3,1.3,40,0.00,,---,0.00,VWS V14.01,2013-01-12 06:59:00,